FW2359 Weather Reports


Display with metric or nautical units.
time (UTC)temp
F
wind
direction
speed
MPH
gust
MPH
rain 1hr
in
rain 24hr
in
rain mn
in
humidity
%
barometer
mb
20260831060037 58 183 3.0 5.0 0.00 0.00 0.00 69 1016.1
20260831054536 58 160 3.0 6.0 0.00 0.00 0.00 67 1016.1
20260831053036 59 144 3.0 5.0 0.00 0.00 0.00 64 1016.2
20260831051642 61 164 3.0 5.0 0.00 0.00 0.00 62 1016.2
20260831050030 64 238 2.0 6.0 0.00 0.00 0.00 60 1016.3
20260831044535 65 260 5.0 10.0 0.00 0.00 0.00 59 1016.2
20260831043035 65 269 4.0 8.0 0.00 0.00 0.00 57 1016.2
20260831041542 65 254 4.0 13.0 0.00 0.00 0.00 57 1016.1
20260831040036 64 233 4.0 9.0 0.00 0.00 0.00 57 1016.1
20260831034529 64 230 2.0 7.0 0.00 0.00 0.00 55 1015.9
20260831033031 66 230 1.0 7.0 0.00 0.00 0.00 53 1015.8
20260831031537 67 244 1.0 7.0 0.00 0.00 0.00 50 1015.7
20260831030033 68 244 4.0 10.0 0.00 0.00 0.00 48 1015.6
20260831024552 69 240 5.0 10.0 0.00 0.00 0.00 46 1015.5
20260831023036 71 240 5.0 11.0 0.00 0.00 0.00 44 1015.5
20260831020037 73 235 5.0 11.0 0.00 0.00 0.00 41 1015.4
20260831014534 74 229 7.0 13.0 0.00 0.00 0.00 39 1015.4
20260831013034 75 234 7.0 13.0 0.00 0.00 0.00 38 1015.5
20260831011530 76 246 6.0 15.0 0.00 0.00 0.00 38 1015.6
20260831010035 76 244 6.0 15.0 0.00 0.00 0.00 37 1015.7
20260831004531 76 249 5.0 11.0 0.00 0.00 0.00 38 1015.7
20260831003109 77 273 6.0 12.0 0.00 0.00 0.00 38 1015.7
20260831001534 76 247 7.0 16.0 0.00 0.00 0.00 37 1015.7
20260831000034 76 270 8.0 14.0 0.00 0.00 0.00 38 1015.7
20260830234533 76 268 9.0 15.0 0.00 0.00 0.00 37 1015.9
20260830233035 76 261 8.0 15.0 0.00 0.00 0.00 35 1016.1
20260830231537 76 259 9.0 16.0 0.00 0.00 0.00 33 1016.2
20260830230030 76 260 8.0 15.0 0.00 0.00 0.00 34 1016.4
20260830224534 76 283 8.0 15.0 0.00 0.00 0.00 35 1016.6
20260830223031 76 267 7.0 11.0 0.00 0.00 0.00 35 1017.0
20260830221609 75 275 7.0 15.0 0.00 0.00 0.00 36 1017.2
20260830220032 75 258 7.0 12.0 0.00 0.00 0.00 37 1017.4
20260830214531 74 274 7.0 14.0 0.00 0.00 0.00 37 1017.6
20260830213031 74 267 8.0 12.0 0.00 0.00 0.00 38 1017.8
20260830211535 73 274 8.0 17.0 0.00 0.00 0.00 39 1017.9
20260830210035 73 271 9.0 16.0 0.00 0.00 0.00 39 1018.0
20260830201531 70 261 8.0 12.0 0.00 0.00 0.00 43 1018.6
20260830200143 69 264 9.0 18.0 0.00 0.00 0.00 44 1018.8
20260830194604 69 275 9.0 15.0 0.00 0.00 0.00 45 1018.9
20260830193107 68 264 9.0 17.0 0.00 0.00 0.00 46 1019.1
20260830191648 67 282 10.0 15.0 0.00 0.00 0.00 47 1019.2
20260830190105 67 269 9.0 15.0 0.00 0.00 0.00 48 1019.5
20260830183036 66 272 9.0 16.0 0.00 0.00 0.00 51 1019.8
20260830181606 65 275 8.0 15.0 0.00 0.00 0.00 52 1019.9
20260830180030 64 267 7.0 10.0 0.00 0.00 0.00 55 1020.0
20260830174535 64 258 7.0 14.0 0.00 0.00 0.00 56 1020.0
20260830171534 61 265 8.0 16.0 0.00 0.00 0.00 61 1020.1
20260830164534 60 263 8.0 15.0 0.00 0.00 0.00 66 1020.4
20260830163034 59 254 8.0 18.0 0.00 0.00 0.00 68 1020.6
20260830160035 58 252 9.0 16.0 0.00 0.00 0.00 72 1020.8
20260830154535 57 256 7.0 11.0 0.00 0.00 0.00 74 1020.9
20260830153033 56 242 6.0 14.0 0.00 0.00 0.00 78 1021.0
20260830151535 54 235 7.0 14.0 0.00 0.00 0.00 82 1021.0
20260830150028 52 207 4.0 16.0 0.00 0.00 0.00 85 1021.1
20260830144528 51 215 0.0 4.0 0.00 0.00 0.00 85 1021.1
20260830143041 50 191 2.0 6.0 0.00 0.00 0.00 84 1020.9
20260830141534 51 198 3.0 6.0 0.00 0.00 0.00 84 1020.8
20260830140033 51 222 4.0 10.0 0.00 0.00 0.00 85 1020.8
20260830134535 51 225 4.0 7.0 0.00 0.00 0.00 85 1020.6
20260830133034 50 208 3.0 8.0 0.00 0.00 0.00 85 1020.5
20260830131532 50 228 2.0 9.0 0.00 0.00 0.00 84 1020.4
20260830130109 50 205 3.0 7.0 0.00 0.00 0.00 84 1020.3
20260830124536 50 212 4.0 7.0 0.00 0.00 0.00 86 1020.2
20260830123031 49 215 4.0 9.0 0.00 0.00 0.00 85 1020.3
20260830121536 49 225 1.0 4.0 0.00 0.00 0.00 83 1020.3
20260830114531 49 224 1.0 7.0 0.00 0.00 0.00 81 1020.2
20260830113032 49 204 0.0 3.0 0.00 0.00 0.00 79 1020.2
20260830111529 51 198 1.0 4.0 0.00 0.00 0.00 77 1020.1
20260830110032 53 257 3.0 6.0 0.00 0.00 0.00 76 1020.2
20260830104531 52 259 4.0 8.0 0.00 0.00 0.00 76 1020.1
20260830103032 53 246 3.0 7.0 0.00 0.00 0.00 76 1020.2
20260830101615 53 242 5.0 11.0 0.00 0.00 0.00 77 1020.2
20260830094529 53 243 4.0 8.0 0.00 0.00 0.00 76 1020.1
20260830093032 51 257 3.0 7.0 0.00 0.00 0.00 75 1020.0
20260830091537 52 228 0.0 5.0 0.00 0.00 0.00 73 1020.0
20260830090036 53 213 0.0 3.0 0.00 0.00 0.00 71 1020.0
20260830084534 56 180 0.0 3.0 0.00 0.00 0.00 69 1020.0
20260830083031 57 246 5.0 13.0 0.00 0.00 0.00 69 1020.0
20260830081535 57 257 8.0 16.0 0.00 0.00 0.00 68 1020.0
20260830080036 57 258 6.0 12.0 0.00 0.00 0.00 68 1020.1
20260830074533 57 248 7.0 16.0 0.00 0.00 0.00 68 1020.1
20260830073037 57 246 6.0 14.0 0.00 0.00 0.00 67 1020.0
20260830071643 57 236 5.0 12.0 0.00 0.00 0.00 66 1020.0
20260830070030 58 233 4.0 9.0 0.00 0.00 0.00 65 1020.0
20260830064531 58 230 6.0 13.0 0.00 0.00 0.00 65 1019.9
20260830063036 58 226 6.0 11.0 0.00 0.00 0.00 66 1019.8